Regional Weather Roundup
Issued by NWS

Home | Current Version | Previous Version | Graphics & Text | Print | Product List | Glossary Off
Versions: 1 2 3 4 5 6 7 8 9 10 11 12 13 14 15 16 17 18 19 20 21 22 23 24 25 26 27 28 29 30 31 32 33 34 35 36 37 38 39 40 41 42 43 44 45 46 47 48 49 50

000
ASUS43 KTOP 030608
RWRKS

WEATHER ROUNDUP FOR KANSAS
NATIONAL WEATHER SERVICE GOODLAND KS
100 AM CDT THU SEP 03 2015

NOTE:  "FAIR" INDICATES FEW OR NO CLOUDS BELOW 12,000 FEET WITH NO
SIGNIFICANT WEATHER AND/OR OBSTRUCTIONS TO VISIBILITY.

KSZ001>006-013>018-027>032-041>047-030700-
NORTHWEST KANSAS

CITY           SKY/WX    TMP DP  RH WIND       PRES   REMARKS
GOODLAND       MOCLDY    77  54  44 S14       29.91S
6HR MIN TEMP:  69; 6HR MAX TEMP:  94;

HAYS           FAIR      81  57  44 S12G17    29.88R
HILL CITY      FAIR      83  58  42 S12       29.85S
6HR MIN TEMP:  83; 6HR MAX TEMP:  99;

RUSSELL        FAIR      79  61  53 S15       29.86S
6HR MIN TEMP:  79; 6HR MAX TEMP:  96;

$$

KSZ061>065-074>080-084>089-030700-
SOUTHWEST KANSAS

CITY           SKY/WX    TMP DP  RH WIND       PRES   REMARKS
DODGE CITY     FAIR      75  57  53 S9        29.93S
6HR MIN TEMP:  75; 6HR MAX TEMP:  92;

ELKHART          N/A     73  54  51 S10         N/A
GARDEN CITY    FAIR      74  58  57 S12       29.92S
6HR MIN TEMP:  74; 6HR MAX TEMP:  93;

GREAT BEND     FAIR      79  61  53 S16       29.89S
LIBERAL        FAIR      75  54  46 S10       29.96S
PRATT          FAIR      77  59  53 MISG      29.93S
$$

KSZ066>073-081>083-090>101-030700-
SOUTHEAST KANSAS

CITY           SKY/WX    TMP DP  RH WIND       PRES   REMARKS
CHANUTE        FAIR      72  68  87 SE6       29.97S
6HR MIN TEMP:  72; 6HR MAX TEMP:  84;

COFFEYVILLE    FAIR      73  68  84 S7        29.96S
6HR MIN TEMP:  73; 6HR MAX TEMP:  84;

HUTCHINSON     FAIR      77  63  61 S10       29.92S
6HR MIN TEMP:  77; 6HR MAX TEMP:  92;

MEDICINE LODGE   N/A     79  61  53 S8        29.91S
NEWTON         FAIR      75  63  64 S12       29.96S
PARSONS        FAIR      73  69  87 SE3       29.97F
6HR MIN TEMP:  73; 6HR MAX TEMP:  84; 6HR PCP: TRACE;

WICHITA INTL   FAIR      77  65  66 S10       29.93S
6HR MIN TEMP:  76; 6HR MAX TEMP:  90;

WICHITA JABRA  FAIR      75  66  73 S9        29.93F
6HR MIN TEMP:  75; 6HR MAX TEMP:  87;

WICHITA MCCONL FAIR      76  64  66 SE12      29.93S
WINFIELD       FAIR      76  65  68 S9        29.95S
6HR MIN TEMP:  76; 6HR MAX TEMP:  88;

$$

KSZ007>012-019>026-033>040-048>060-102>105-030700-
NORTHEAST KANSAS

CITY           SKY/WX    TMP DP  RH WIND       PRES   REMARKS
CONCORDIA      FAIR      78  65  63 S18       29.87F
6HR MIN TEMP:  76; 6HR MAX TEMP:  90;

EMPORIA        FAIR      73  68  84 S14       29.94F
6HR MIN TEMP:  73; 6HR MAX TEMP:  85;

LAWRENCE       FAIR      76  69  79 S9        29.94S
6HR MIN TEMP:  73; 6HR MAX TEMP:  85;

MANHATTAN      FAIR      79  66  64 S12       29.90S
6HR MIN TEMP:  79; 6HR MAX TEMP:  91;

MARYSVILLE     FAIR      75  68  78 S8        29.90S
OLATHE IND     FAIR      73  69  87 S9        29.96F
6HR MIN TEMP:  73; 6HR MAX TEMP:  83;

OLATHE EXE     FAIR      72  69  90 S7        29.96F
6HR MIN TEMP:  72; 6HR MAX TEMP:  82;

SALINA         FAIR      81  64  56 S14       29.88S
6HR MIN TEMP:  81; 6HR MAX TEMP:  93;

TOPEKA BILLARD FAIR      77  68  73 S7        29.93S
6HR MIN TEMP:  77; 6HR MAX TEMP:  86;

TOPEKA FORBES  FAIR      76  69  79 S7        29.94S
6HR MIN TEMP:  76; 6HR MAX TEMP:  86;

$$


USA.gov is the U.S. government's official web portal to all federal, state and local government web resources and services.